Regional Weather Roundup
Issued by NWS

Home | Current Version | Previous Version | Text Only | Print | Product List | Glossary On
Versions: 1 2 3 4 5 6 7 8 9 10 11 12 13 14 15 16 17 18 19 20 21 22 23 24 25 26 27 28 29 30 31 32 33 34 35 36 37 38 39 40 41 42 43 44 45 46 47 48 49 50
000
ASUS43 KBIS 280810
RWRND

NORTH DAKOTA REGIONAL WEATHER ROUNDUP
NATIONAL WEATHER SERVICE BISMARCK ND
300 AM CDT SUN AUG 28 2016

NOTE: "FAIR" INDICATES FEW OR NO CLOUDS BELOW 12,000 FEET WITH NO
SIGNIFICANT WEATHER AND/OR OBSTRUCTIONS TO VISIBILITY.


NDZ001>003-009>011-017-280900-
NORTHWEST NORTH DAKOTA

CITY           SKY/WX    TMP DP  RH WIND       PRES   REMARKS
WILLISTON      CLEAR     66  45  46 S6        29.81S
MINOT          CLEAR     57  50  77 SE6       29.86F
MINOT AFB      CLEAR     53  49  83 SE6       29.85F
$$

NDZ018>021-031>035-040>046-280900-
SOUTHWEST NORTH DAKOTA

CITY           SKY/WX    TMP DP  RH WIND       PRES   REMARKS
BISMARCK       CLEAR     57  50  77 NE7       29.91F
DICKINSON      CLEAR     57  51  80 S9        29.87F
GARRISON         N/A     60  54  80 SE7       29.88F
HETTINGER ARPT CLEAR     61  52  72 E7        29.90F
$$

NDZ004>008-012>016-024-026-027-054-280900-
NORTHEAST NORTH DAKOTA

CITY           SKY/WX    TMP DP  RH WIND       PRES   REMARKS
GRAND FORKS    CLEAR     58  56  93 S7        29.96F
GRND FRKS AFB  CLEAR     58  56  94 S6        29.96F
DEVILS LAKE    CLEAR     61  59  93 SE9       29.95
$$

NDZ022-023-025-028>030-036>039-047>053-280900-
SOUTHEAST NORTH DAKOTA

CITY           SKY/WX    TMP DP  RH WIND       PRES   REMARKS
FARGO          CLEAR     61  58  90 SE9       29.98F
JAMESTOWN      CLEAR     60  58  92 SE8       29.95S
$$




USA.gov is the U.S. government's official web portal to all federal, state and local government web resources and services.